カタログに戻る

COSMOS 886 DEB

運用中LEO
NORAD 9650·DEBRIS·🇷🇺 Russia

打ち上げ Dec 27, 1976 から Baikonur Cosmodrome

Loading…

次のパス (今後24時間)

TLE

最新Source: Space-Track

元期: Sep 14, 2026, 12:00 UTC

1 09650U 76126G   26257.50002627  .00002949  00000-0  67470-3 0  9997
2 09650  65.8094 215.7044 0861922 347.3773  10.6841 13.32985811366869

AllMySatでCOSMOS 886 DEBをリアルタイム追跡

Download on the App Store